COSMOS 2227

Satellite information

Favourite Embed

Satellite Type and Status

PAYLOADIN ORBIT

Key statistics

Satellite COSMOS 2227 at a glance.

Uptime

11983

Days in orbit

Revolutions

≈ 14.1

Per day

Orbit

LEO

Low Earth Orbit

Inclination

71.0

Latest

Satellite identification and parameters

Extended collection of information and parameters for COSMOS 2227.

Object identification

Identified? True

Debris? False

Object name: COSMOS 2227

International designator: 1992-093A

Object number (NORAD): 22284

Object ID (CCSDS): 22284

Country: COMMONWEALTH OF INDEPENDENT STATES (CIS)

Current information (Y/N): Y

RCS size: LARGE

Orbital parameters

Period: 101.859 minutes

Inclination: 70.9788 deg

SMA: 7224.798 km

Apoapsis: 861.912 km

Periapsis: 831.414 km

RAAN: 335.7618 deg

Eccentricy: 0.0021107

Argument of periapsis: 253.7773 deg

Mean anomaly: 106.1026 deg

Mean motion: 14.13722571 rev/day

Mean motion (dot): -0.00000114 rev/day2

B* drag term: -0.000035156199 1/REarth

Two-line elements (TLE)

Creation date: Oct. 16, 2025, 2:37 a.m.

Reference frame: TEME

Reference center: EARTH

Epoch: Oct. 15, 2025, 8:04 p.m. UTC

TLE line 0: 0 COSMOS 2227

TLE line 1: 1 22284U 92093A 25288.83626129 -.00000114 00000-0 -35156-4 0 9995

TLE line 2: 2 22284 70.9788 335.7618 0021107 253.7773 106.1026 14.13722571692294

Live tracking on map

Real-time ground track for satellite COSMOS 2227.

In-orbit conjunctions

A list of the most updated potential collisions computed for object COSMOS 2227.

Target Orbit TCA Probability of collision Miss distance Type
YAOGAN 30 DEB SSO 2025-08-24 08:32:04 0.0001652908 766.0 (m) DEBRIS
METEOR 2-17 DEB LEO 2025-08-20 09:13:16 0.0001586195 210.0 (m) DEBRIS
FENGYUN 1C DEB SSO 2025-05-15 01:18:10 0.0004396225 895.0 (m) DEBRIS

Associated space launch

Second generation ELING satellite

COSMOS 2227 was lifted into orbit during the mission ‘Zenit-2 | Tselina-2 12’, on board a Zenit-2 space rocket.

The launch took place on Dec. 25, 1992, 5:56 a.m. from 45/1.

For more information about the launch, click the button.

Launch to space Zenit-2 | Tselina-2 12
Zenit-2 | Tselina-2 12

Agency: N/A

Status: Launch Successful

Launch date: Dec. 25, 1992, 5:56 a.m. UTC

Rocket: Zenit-2

Launch pad: 45/1

Location: Baikonur Cosmodrome, Republic of Kazakhstan

...

Latest news about this satellite

There are no fresh news available about this satellite. Check back as we update our databases every day.


Newsletter sign-up

Weekly statistics, charts and insights to help you stay on top of the space industry.